TimePST,TemperatureF,Dew PointF,Humidity,Sea Level PressureIn,VisibilityMPH,Wind Direction,Wind SpeedMPH,Gust SpeedMPH,PrecipitationIn,Events,Conditions,WindDirDegrees,DateUTC
12:52 AM,25.0,17.1,72,29.95,-9999.0,NE,5.8,-,N/A,,Unknown,50,2013-03-08 08:52:00
1:52 AM,21.9,16.0,78,29.95,-9999.0,Calm,Calm,-,N/A,,Unknown,0,2013-03-08 09:52:00
2:52 AM,21.9,16.0,78,29.93,-9999.0,ENE,5.8,-,N/A,,Unknown,70,2013-03-08 10:52:00
3:52 AM,24.1,18.0,77,29.92,-9999.0,NE,5.8,-,N/A,,Unknown,40,2013-03-08 11:52:00
4:52 AM,18.0,14.0,84,29.94,-9999.0,Calm,Calm,-,N/A,,Unknown,0,2013-03-08 12:52:00
5:52 AM,19.0,15.1,85,29.96,-9999.0,Calm,Calm,-,N/A,,Unknown,0,2013-03-08 13:52:00
6:52 AM,21.9,17.1,82,29.96,-9999.0,Calm,Calm,-,N/A,,Unknown,0,2013-03-08 14:52:00
7:52 AM,30.9,21.9,69,29.95,-9999.0,Calm,Calm,-,N/A,,Unknown,0,2013-03-08 15:52:00
8:52 AM,36.0,19.9,52,29.94,-9999.0,Calm,Calm,-,N/A,,Unknown,0,2013-03-08 16:52:00
9:52 AM,39.9,19.0,43,29.94,-9999.0,Variable,4.6,-,N/A,,Unknown,0,2013-03-08 17:52:00
10:52 AM,43.0,19.9,40,29.92,-9999.0,NE,9.2,-,N/A,,Unknown,50,2013-03-08 18:52:00
11:52 AM,46.0,19.0,34,29.90,-9999.0,North,12.7,16.1,N/A,,Unknown,360,2013-03-08 19:52:00
12:52 PM,46.9,18.0,32,29.88,-9999.0,North,4.6,16.1,N/A,,Unknown,360,2013-03-08 20:52:00
1:52 PM,46.9,19.0,33,29.87,-9999.0,North,6.9,16.1,N/A,,Unknown,10,2013-03-08 21:52:00
2:52 PM,48.9,17.1,28,29.87,-9999.0,NNW,12.7,-,N/A,,Unknown,340,2013-03-08 22:52:00
3:52 PM,46.9,15.1,28,29.88,-9999.0,NNW,9.2,-,N/A,,Unknown,340,2013-03-08 23:52:00
4:52 PM,45.0,15.1,30,29.91,-9999.0,North,9.2,-,N/A,,Unknown,10,2013-03-09 00:52:00
5:52 PM,39.0,15.1,38,29.95,-9999.0,North,6.9,-,N/A,,Unknown,10,2013-03-09 01:52:00
6:52 PM,35.1,14.0,42,29.98,-9999.0,North,3.5,-,N/A,,Unknown,360,2013-03-09 02:52:00
7:52 PM,30.9,12.0,46,29.99,-9999.0,Calm,Calm,-,N/A,,Unknown,0,2013-03-09 03:52:00
8:52 PM,30.0,12.0,47,30.00,-9999.0,Calm,Calm,-,N/A,,Unknown,0,2013-03-09 04:52:00
9:52 PM,19.9,8.1,60,30.04,-9999.0,ESE,3.5,-,N/A,,Unknown,120,2013-03-09 05:52:00
10:52 PM,23.0,9.0,55,30.04,-9999.0,Calm,Calm,-,N/A,,Unknown,0,2013-03-09 06:52:00
11:52 PM,24.1,12.0,60,30.05,-9999.0,SSE,10.4,-,N/A,,Unknown,160,2013-03-09 07:52:00